Wetbulb
69.12 69.05 71.01 70.75 71.23 71.13 71.23 71.33 71.30 71.10 71.44 71.20 70.83 70.47 70.53 71.07 72.13 72.10 71.70 71.42 70.48 68.93 69.15 68.95 68.94 69.19 68.99 69.02 69.29 69.12 68.90 68.76 68.94 68.80 68.67 68.44 67.60 67.39 67.67 67.82 67.06 66.15 67.45
69.89 69.90 70.45 71.45 70.84 70.28 70.07 70.27 70.85 70.74 71.36 71.07 70.59 69.85 69.72 70.20 70.59 69.84 70.98 71.09 70.44 68.69 68.45 68.17 68.55 68.53 68.44 68.44 68.27 68.14 67.99 67.62 68.33 68.28 68.53 68.04 66.71 66.22 67.09 67.17 68.33 66.24 66.17
69.46 70.42 70.54 71.20 70.62 69.69 69.52 69.43 70.01 70.71 70.69 70.65 70.11 69.51 69.59 69.72 70.02 69.32 69.70 70.26 69.60 68.41 67.80 67.92 67.85 67.74 67.49 67.28 67.12 67.08 66.99 66.97 67.84 67.71 67.52 64.77 63.82 65.49 65.76 65.91 66.15 65.81 65.87
69.53 69.81 69.16 69.80 70.40 70.10 69.77 70.05 70.16 70.11 69.92 69.52 69.12 68.83 68.53 69.63 69.86 69.28 68.91 69.34 69.60 67.97 67.62 67.62 67.16 66.40 65.81 65.47 65.25 65.30 65.19 65.38 66.13 66.88 65.19 64.40 63.49 65.36 65.38 64.88 65.16 64.65 64.14
68.73 69.33 69.32 69.66 69.99 69.54 69.77 70.35 69.94 69.86 69.31 69.23 68.54 67.94 68.11 69.26 69.52 68.93 68.52 68.60 68.93 67.71 67.05 67.21 66.58 65.90 65.23 64.81 64.83 65.35 65.29 65.22 65.59 64.32 63.32 63.63 63.51 64.14 64.74 64.33 63.75 63.56 63.32
68.90 69.30 68.75 69.88 70.05 69.75 70.15 70.15 69.66 69.41 69.18 68.63 67.58 67.44 67.10 67.61 68.36 68.53 68.05 67.75 67.92 67.08 66.48 66.85 66.28 65.60 64.91 64.27 63.74 63.82 63.72 64.86 64.81 63.68 63.37 63.78 63.33 64.78 64.63 63.80 63.25 62.84 62.89
67.60 68.91 68.54 69.32 69.86 70.21 70.68 69.72 69.38 69.09 68.64 68.90 67.21 67.22 67.04 67.03 67.41 67.74 67.87 66.76 66.73 66.20 66.56 66.31 65.99 65.25 64.53 64.00 63.42 62.95 62.97 63.89 63.67 63.56 63.43 63.55 63.56 64.78 64.61 63.90 63.22 62.97 62.65
67.83 68.97 68.39 66.58 68.01 69.28 69.72 69.70 69.09 68.77 68.08 67.25 67.18 68.06 66.90 66.38 66.50 67.18 67.03 66.31 66.10 65.92 65.82 65.70 65.52 64.91 64.27 63.62 62.94 62.29 62.40 62.60 62.82 63.15 63.35 63.40 65.02 64.88 64.63 63.86 63.21 62.73 62.50
67.95 68.26 67.93 67.17 67.07 66.52 67.30 67.82 68.14 68.24 67.98 68.16 68.34 67.95 67.48 66.89 66.78 66.64 66.74 65.99 65.25 65.31 65.22 65.08 64.74 64.31 63.83 63.20 62.50 61.57 61.43 61.78 62.58 62.70 62.75 63.35 65.29 65.11 65.09 64.41 63.75 63.50 63.28
67.13 67.79 67.07 66.93 67.26 67.32 67.81 64.70 65.50 66.05 66.66 66.80 65.64 64.87 64.43 64.72 65.06 64.93 64.33 65.45 64.80 64.54 64.27 64.23 64.06 63.66 63.23 62.45 61.58 60.64 60.63 61.98 62.80 62.70 62.04 62.12 64.49 65.53 65.51 64.69 64.27 64.16 64.12
66.46 67.64 67.20 66.25 66.42 66.67 66.57 65.12 63.70 63.50 64.18 63.62 63.31 62.25 62.80 64.95 64.97 64.87 63.34 64.80 64.49 64.43 63.91 63.23 62.48 61.71 61.71 61.50 61.11 60.89 61.40 63.18 63.07 62.89 61.97 62.36 63.94 65.02 65.37 65.57 65.72 66.06 66.07
63.69 66.56 67.18 66.25 65.51 66.08 65.35 65.89 66.13 65.17 66.55 66.59 65.98 65.79 65.13 65.02 64.67 63.97 61.10 60.93 62.32 63.46 63.24 62.21 61.04 60.97 60.99 62.96 62.63 61.78 63.03 63.21 63.02 62.64 60.45 61.06 62.57 64.23 64.71 64.86 65.19 65.63 65.69
63.74 66.42 67.36 66.68 65.40 65.34 65.01 65.57 65.39 64.81 65.14 66.19 66.27 65.89 65.32 64.22 63.74 63.68 62.74 62.16 61.99 59.71 62.60 62.41 62.70 62.58 62.61 62.83 62.80 62.83 63.03 63.08 62.90 62.89 58.97 59.45 61.81 63.84 64.47 64.99 65.35 65.37 65.13
62.95 65.11 66.91 67.15 65.83 65.10 65.15 65.15 64.90 64.00 64.17 64.81 65.60 65.68 64.76 64.00 63.82 63.17 62.73 62.99 63.06 62.86 62.41 62.97 62.76 62.79 62.66 62.62 62.74 62.72 62.76 62.75 62.66 62.97 57.75 57.81 60.94 63.33 64.10 64.39 63.90 63.59 63.49
61.73 63.74 65.26 66.30 66.24 66.08 64.99 64.38 64.36 64.13 63.64 63.70 64.04 64.55 64.41 63.77 63.29 63.21 63.02 63.21 63.42 63.47 63.19 62.92 63.03 62.85 62.90 62.82 62.78 62.37 62.31 62.80 62.76 62.53 60.49 56.57 60.07 61.52 61.85 61.79 62.03 62.15 62.14
62.04 63.10 64.04 65.58 65.31 65.61 65.55 65.22 63.87 64.11 64.03 63.97 64.22 64.59 64.75 64.43 63.97 63.37 63.64 63.82 63.76 64.01 63.68 63.58 62.99 62.91 62.90 62.77 62.18 62.09 62.75 63.14 62.57 61.92 61.79 57.60 58.34 57.89 58.28 58.23 58.70 59.33 59.92
61.99 63.19 63.66 64.42 65.34 64.38 64.50 65.30 64.54 63.88 63.65 64.17 64.74 65.39 64.75 64.59 63.90 64.03 64.03 63.90 64.01 63.88 63.48 63.29 63.05 63.07 62.56 62.26 62.07 62.72 63.21 62.72 61.81 60.66 60.64 60.37 57.56 55.36 55.30 55.41 56.79 57.78 58.96
61.81 61.98 63.17 64.23 64.64 63.82 63.30 63.72 64.84 64.21 63.45 64.05 64.98 65.46 64.53 64.43 64.31 63.77 63.80 63.64 64.06 63.94 63.70 63.27 62.80 62.21 62.11 61.94 62.09 62.73 63.14 62.22 60.64 59.95 59.53 58.59 55.95 54.12 54.18 53.86 55.29 56.76 56.25
61.32 61.28 62.66 63.79 63.79 64.14 64.69 64.65 65.14 64.70 64.19 64.21 64.37 64.96 65.27 64.72 64.53 64.18 63.98 64.15 64.11 63.68 63.04 62.12 61.97 61.50 61.18 62.25 61.26 61.32 62.25 60.88 59.52 59.10 57.52 56.40 52.65 52.27 52.30 53.23 53.41 51.91 52.01
62.37 60.66 61.93 63.01 63.33 63.84 64.12 64.19 64.53 64.77 64.78 64.74 64.74 65.47 65.65 65.30 64.30 63.98 64.10 64.56 64.29 63.08 61.63 61.41 61.10 61.37 61.60 60.52 60.15 60.45 60.59 59.96 59.50 58.51 56.35 54.27 49.88 50.63 51.04 51.31 52.43 49.69 48.50
63.89 61.87 61.11 61.60 62.24 62.80 62.99 62.67 62.86 62.52 63.67 63.71 64.73 65.48 66.18 65.67 64.02 62.56 63.11 63.78 64.02 62.38 62.39 62.64 61.39 60.56 59.97 60.81 60.30 60.28 58.35 58.84 58.05 56.99 55.60 51.57 48.97 49.58 49.30 50.13 49.32 48.74 46.70
64.52 64.42 62.67 61.17 62.13 62.50 63.12 63.24 63.15 63.11 63.85 64.06 64.72 65.33 65.64 65.13 63.75 62.53 62.75 62.08 62.92 63.05 62.69 62.04 60.40 59.00 59.51 60.29 58.36 57.59 54.19 54.98 56.13 55.38 53.27 49.04 47.68 48.76 48.25 47.81 46.19 45.30 44.93
64.47 65.01 64.81 64.08 62.82 62.89 63.17 63.59 63.62 64.47 64.55 63.99 64.16 65.08 65.03 64.68 64.55 63.54 62.79 62.88 61.97 62.28 61.59 61.35 60.51 59.06 58.24 58.26 59.19 57.03 53.02 51.96 53.25 54.46 52.25 47.92 46.34 47.10 47.46 46.61 44.41 43.71 42.96
64.08 66.08 66.09 66.17 65.74 64.80 64.56 64.31 63.62 63.11 61.98 63.55 64.75 65.25 64.50 65.11 65.00 64.77 63.57 63.35 62.62 62.30 62.83 63.38 61.38 59.80 58.96 57.18 57.49 56.71 56.80 55.29 51.21 47.31 50.22 47.28 45.16 45.41 46.04 46.01 43.85 42.59 41.79
63.50 64.65 65.96 66.04 66.17 66.38 65.93 65.53 64.99 64.08 64.55 65.11 65.37 65.44 65.28 65.48 65.12 64.63 64.19 63.88 63.79 64.15 63.93 62.87 60.61 58.71 58.85 57.81 56.89 55.37 54.50 53.45 53.18 48.44 43.56 43.85 43.64 45.03 45.44 44.32 42.86 41.50 40.86
62.47 63.50 64.21 64.52 64.95 66.03 66.20 65.90 65.15 64.72 64.55 64.54 65.02 64.64 65.11 64.96 64.79 64.49 63.58 63.59 63.87 63.10 61.16 59.29 58.52 58.11 57.27 57.31 57.19 56.10 52.96 49.76 47.24 45.19 42.87 42.60 40.72 42.32 44.41 44.02 42.06 40.37 40.03
MSLP
1017.81 1019.05 1019.39 1019.50 1019.67 1019.76 1019.89 1020.06 1020.14 1020.19 1020.17 1020.25 1020.31 1020.39 1020.27 1020.48 1020.34 1020.31 1020.28 1020.39 1020.57 1020.64 1020.73 1020.78 1020.87 1020.90 1020.90 1020.97 1021.03 1021.09 1021.10 1021.03 1020.97 1020.93 1020.95 1021.07 1021.16 1021.09 1021.12 1020.95 1020.68 1020.73 1020.85
1017.71 1018.98 1019.47 1019.63 1019.76 1020.03 1020.21 1020.37 1020.44 1020.37 1020.42 1020.47 1020.59 1020.73 1020.68 1020.86 1020.78 1020.74 1020.71 1020.80 1020.96 1021.14 1021.21 1021.33 1021.43 1021.46 1021.52 1021.57 1021.60 1021.61 1021.57 1021.48 1021.31 1021.33 1021.18 1021.41 1021.69 1021.67 1021.74 1021.67 1021.42 1021.42 1021.36
1018.10 1018.76 1019.41 1019.84 1020.00 1020.36 1020.55 1020.63 1020.67 1020.83 1020.91 1020.91 1020.93 1020.98 1021.07 1021.22 1021.19 1021.18 1021.20 1021.28 1021.44 1021.61 1021.72 1021.88 1021.97 1022.03 1022.09 1022.11 1022.16 1022.16 1022.13 1021.95 1021.70 1021.43 1021.46 1021.75 1022.03 1022.14 1022.24 1022.21 1022.08 1021.99 1021.95
1018.22 1018.78 1019.60 1020.25 1020.42 1020.56 1020.75 1020.92 1021.00 1021.11 1021.13 1021.16 1021.28 1021.30 1021.45 1021.50 1021.51 1021.63 1021.78 1021.87 1021.89 1022.02 1022.19 1022.38 1022.52 1022.59 1022.62 1022.69 1022.71 1022.74 1022.63 1022.40 1022.08 1021.64 1021.40 1021.66 1022.11 1022.53 1022.56 1022.55 1022.54 1022.53 1022.40
1018.33 1019.39 1020.15 1020.60 1020.73 1020.91 1021.13 1021.27 1021.36 1021.50 1021.53 1021.60 1021.66 1021.72 1021.83 1021.92 1021.93 1022.10 1022.31 1022.41 1022.42 1022.53 1022.69 1022.93 1023.08 1023.19 1023.22 1023.17 1023.15 1023.14 1022.98 1022.78 1022.40 1022.21 1022.49 1022.53 1022.67 1023.05 1023.06 1023.05 1022.99 1023.00 1022.99
1018.52 1019.61 1020.57 1020.77 1020.88 1021.11 1021.35 1021.56 1021.75 1021.87 1021.97 1021.93 1022.11 1022.30 1022.40 1022.39 1022.51 1022.58 1022.85 1023.05 1023.08 1023.15 1023.24 1023.43 1023.57 1023.64 1023.67 1023.67 1023.69 1023.65 1023.44 1023.05 1022.72 1022.66 1022.82 1023.27 1023.41 1023.51 1023.49 1023.53 1023.51 1023.47 1023.41
1019.38 1019.99 1020.58 1021.03 1021.12 1021.42 1021.55 1021.84 1022.14 1022.38 1022.47 1022.50 1022.68 1022.96 1023.03 1023.02 1023.05 1023.17 1023.33 1023.59 1023.76 1023.79 1023.91 1023.96 1023.99 1024.07 1024.13 1024.18 1024.19 1024.10 1023.90 1023.53 1023.19 1023.18 1023.48 1023.75 1024.00 1023.96 1023.93 1023.93 1023.90 1023.87 1023.82
1019.72 1020.20 1020.81 1021.46 1021.61 1021.75 1021.92 1022.18 1022.56 1022.83 1022.95 1022.98 1023.08 1023.29 1023.37 1023.49 1023.56 1023.75 1023.89 1023.99 1024.19 1024.29 1024.33 1024.34 1024.42 1024.50 1024.58 1024.66 1024.68 1024.53 1024.20 1023.94 1023.59 1023.60 1023.92 1024.28 1024.36 1024.26 1024.25 1024.22 1024.19 1024.11 1024.03
1019.96 1020.54 1020.83 1021.27 1021.92 1022.21 1022.42 1022.60 1022.84 1023.17 1023.29 1023.35 1023.55 1023.70 1023.80 1023.82 1024.03 1024.19 1024.36 1024.47 1024.63 1024.71 1024.70 1024.76 1024.82 1024.92 1024.97 1025.02 1025.04 1024.93 1024.57 1024.19 1023.96 1024.05 1024.11 1024.58 1024.68 1024.49 1024.51 1024.44 1024.35 1024.30 1024.17
1019.91 1020.53 1020.75 1021.15 1021.55 1022.01 1022.58 1023.07 1023.23 1023.51 1023.67 1023.88 1024.11 1024.26 1024.34 1024.35 1024.56 1024.73 1024.86 1025.02 1025.09 1025.10 1025.14 1025.16 1025.21 1025.31 1025.34 1025.36 1025.32 1025.13 1024.85 1024.49 1024.13 1024.19 1024.67 1025.22 1025.03 1024.57 1024.46 1024.46 1024.47 1024.32 1024.18
1020.15 1020.25 1020.64 1021.05 1021.31 1021.78 1022.48 1023.35 1023.58 1023.87 1024.07 1024.28 1024.49 1024.50 1024.39 1024.28 1024.49 1024.86 1025.32 1025.41 1025.46 1025.48 1025.51 1025.58 1025.62 1025.54 1025.42 1025.39 1025.39 1025.12 1024.92 1024.50 1024.41 1024.48 1025.04 1025.53 1025.28 1024.93 1024.72 1024.59 1024.40 1024.18 1024.02
1020.45 1020.38 1020.58 1020.88 1021.35 1021.76 1022.28 1023.02 1023.20 1023.77 1023.73 1023.80 1024.13 1024.13 1024.08 1024.20 1024.64 1024.95 1025.58 1025.74 1025.74 1025.76 1025.74 1025.74 1025.66 1025.46 1025.36 1024.83 1024.95 1024.98 1024.76 1024.71 1024.66 1024.79 1025.65 1025.88 1025.63 1025.28 1024.96 1024.84 1024.62 1024.46 1024.26
1020.51 1020.27 1020.60 1020.77 1021.29 1021.80 1022.21 1022.56 1022.89 1023.18 1023.46 1023.72 1023.87 1024.09 1024.31 1024.65 1024.84 1024.78 1025.29 1025.36 1025.50 1025.75 1025.23 1025.36 1025.19 1025.12 1025.28 1025.11 1025.04 1025.00 1024.99 1024.81 1024.79 1024.90 1025.98 1026.11 1025.93 1025.62 1025.29 1025.15 1024.99 1024.81 1024.65
1020.16 1020.09 1020.55 1020.93 1021.15 1021.61 1022.08 1022.41 1022.67 1022.98 1023.33 1023.66 1023.95 1024.15 1024.34 1024.44 1024.68 1024.68 1024.72 1025.03 1025.18 1025.16 1025.28 1025.15 1025.17 1025.29 1025.27 1025.34 1025.38 1025.28 1025.27 1025.14 1025.15 1025.18 1026.20 1026.35 1026.16 1025.70 1025.45 1025.37 1025.29 1025.19 1025.06
1019.68 1020.22 1020.67 1021.04 1021.21 1021.42 1021.87 1022.04 1022.50 1022.84 1023.30 1023.52 1023.96 1024.27 1024.20 1024.31 1024.56 1024.65 1024.86 1024.90 1024.95 1025.15 1025.15 1025.18 1025.17 1025.14 1025.14 1025.22 1025.23 1025.31 1025.30 1025.36 1025.42 1025.45 1026.02 1026.68 1026.59 1026.31 1026.14 1026.06 1025.77 1025.49 1025.39
1019.20 1020.22 1020.82 1021.19 1021.53 1021.58 1021.68 1021.92 1022.37 1022.63 1023.02 1023.42 1023.67 1024.04 1024.21 1024.29 1024.53 1024.64 1024.82 1024.86 1024.98 1025.06 1025.19 1025.15 1025.13 1025.18 1025.16 1025.19 1025.07 1025.30 1025.31 1025.30 1025.44 1025.63 1025.72 1026.76 1026.98 1026.97 1026.78 1026.64 1026.44 1026.15 1025.85
1018.73 1019.66 1020.58 1021.14 1021.61 1022.02 1022.17 1022.22 1022.21 1022.53 1022.85 1023.23 1023.47 1023.82 1024.11 1024.25 1024.38 1024.47 1024.61 1024.75 1024.88 1025.18 1025.33 1025.36 1025.28 1025.19 1025.10 1025.15 1025.10 1025.07 1025.10 1025.35 1025.53 1025.73 1025.84 1026.07 1026.83 1027.09 1027.23 1027.22 1026.99 1026.67 1026.38
1018.37 1019.12 1020.02 1020.58 1021.15 1021.88 1022.26 1022.56 1022.05 1022.32 1022.62 1022.76 1023.11 1023.54 1023.94 1024.12 1024.23 1024.40 1024.45 1024.60 1024.81 1025.01 1025.05 1024.99 1024.94 1025.03 1025.08 1025.04 1024.99 1024.92 1024.99 1025.35 1025.81 1025.93 1026.23 1026.42 1026.60 1026.65 1027.37 1027.79 1027.57 1027.31 1027.36
1017.83 1018.47 1019.21 1020.04 1020.51 1021.07 1021.56 1021.86 1021.81 1022.03 1022.41 1022.43 1022.65 1023.03 1023.43 1023.82 1024.03 1024.11 1024.30 1024.44 1024.71 1024.77 1024.93 1025.18 1025.17 1025.28 1025.36 1025.22 1025.19 1025.14 1025.11 1025.55 1025.99 1026.20 1026.57 1026.90 1027.30 1027.43 1027.54 1028.21 1028.19 1028.52 1028.53
1017.24 1017.99 1018.61 1019.37 1019.95 1020.33 1020.78 1021.18 1021.36 1021.71 1022.00 1022.15 1022.36 1022.53 1022.89 1023.38 1023.82 1023.98 1024.00 1024.14 1024.46 1024.70 1025.06 1025.16 1025.23 1025.41 1025.54 1025.52 1025.33 1025.21 1025.53 1025.80 1026.00 1026.23 1026.65 1027.00 1027.42 1027.72 1027.99 1028.08 1028.16 1028.71 1028.97
1016.93 1017.45 1018.07 1018.56 1019.13 1019.81 1020.25 1020.47 1020.68 1020.90 1021.43 1021.75 1021.88 1022.18 1022.49 1022.94 1023.56 1023.96 1024.00 1023.72 1024.07 1024.55 1024.65 1024.69 1025.19 1025.44 1025.59 1025.67 1025.39 1025.09 1025.55 1026.00 1026.19 1026.44 1026.78 1027.24 1027.70 1027.98 1028.23 1028.35 1028.67 1028.88 1028.89
1016.11 1016.64 1017.33 1017.79 1018.32 1018.75 1019.33 1019.83 1020.13 1020.39 1020.87 1021.20 1021.51 1021.77 1022.28 1022.82 1023.23 1023.52 1023.69 1023.81 1023.68 1023.81 1024.23 1024.62 1025.04 1025.47 1025.61 1025.81 1025.58 1025.62 1025.50 1025.96 1026.05 1026.45 1026.93 1027.37 1027.84 1028.12 1028.58 1029.01 1029.29 1029.41 1029.47
1015.25 1015.90 1016.41 1017.00 1017.40 1017.92 1018.41 1019.06 1019.64 1019.87 1020.21 1020.66 1021.02 1021.44 1021.81 1022.23 1022.61 1022.95 1023.25 1023.42 1023.64 1023.71 1023.91 1024.18 1024.43 1024.66 1025.11 1025.60 1025.65 1025.81 1025.87 1025.73 1026.22 1026.80 1027.20 1027.55 1027.82 1028.16 1028.48 1028.95 1029.39 1029.67 1029.77
1014.28 1015.05 1015.63 1015.96 1016.62 1017.13 1017.78 1018.22 1018.62 1019.10 1019.45 1019.87 1020.20 1020.75 1021.23 1021.25 1021.53 1022.04 1022.58 1022.88 1023.20 1023.42 1023.58 1023.64 1024.10 1024.38 1024.67 1025.06 1025.50 1025.71 1026.00 1026.18 1026.34 1026.81 1027.32 1027.79 1028.25 1028.54 1028.90 1029.40 1029.68 1029.73 1029.93
1013.91 1014.20 1014.72 1015.29 1015.70 1016.26 1016.87 1017.35 1017.80 1018.22 1018.73 1019.08 1019.46 1019.86 1020.37 1020.70 1020.95 1021.18 1021.56 1022.04 1022.50 1022.65 1022.70 1023.22 1023.92 1024.41 1024.79 1025.09 1025.32 1025.66 1026.21 1026.51 1026.51 1026.74 1027.06 1027.78 1028.27 1028.63 1028.98 1029.39 1030.00 1030.12 1030.10
1013.20 1013.78 1014.18 1014.52 1014.97 1015.61 1016.03 1016.45 1016.80 1017.25 1017.80 1018.18 1018.40 1018.93 1019.52 1019.91 1020.26 1020.53 1020.78 1021.31 1021.64 1022.10 1022.59 1023.09 1023.58 1024.03 1024.48 1024.69 1024.81 1025.27 1025.70 1026.01 1026.46 1026.90 1027.39 1027.87 1028.33 1028.83 1029.30 1029.59 1029.99 1030.31 1030.28
Wind_Speed
10 9 5 8 11 12 10 10 10 12 15 16 16 15 16 14 16 17 18 18 18 18 19 19 19 19 19 20 20 20 19 18 18 19 20 20 20 19 19 19 16 16 20
10 12 8 9 12 12 10 10 10 10 13 15 15 14 13 14 17 18 17 17 17 18 18 18 19 19 19 19 19 19 18 15 10 8 17 19 19 19 19 20 19 17 18
12 12 11 10 13 12 11 9 9 10 13 15 15 14 14 14 16 17 18 15 16 17 18 18 18 18 18 18 17 17 16 14 12 9 18 10 14 19 18 17 18 18 18
12 11 10 9 10 10 10 9 9 9 12 13 13 13 14 12 16 17 17 15 15 17 18 18 18 17 17 17 17 16 15 12 10 13 11 13 14 18 17 17 16 17 17
10 10 12 9 9 9 9 10 11 11 12 12 13 13 13 13 16 17 17 16 15 17 16 17 17 17 17 17 16 15 13 9 6 13 13 12 10 14 17 17 16 16 16
13 11 11 9 10 10 11 12 12 12 11 12 13 13 14 12 17 16 18 15 16 15 15 15 16 16 16 17 16 14 12 12 11 12 13 13 13 15 16 16 15 15 14
10 11 12 8 10 8 12 13 12 10 11 13 13 13 13 12 12 15 15 15 14 14 14 14 14 15 15 15 15 12 11 11 11 12 12 12 12 15 15 15 14 14 14
10 11 12 8 8 9 11 12 11 9 11 11 11 12 13 13 11 13 13 13 13 13 14 14 14 13 13 13 13 12 12 11 11 11 11 10 11 14 14 13 12 12 11
11 9 10 11 10 9 10 11 10 9 8 11 13 14 10 12 12 11 11 11 11 11 12 13 13 12 11 11 11 9 8 9 10 8 10 8 10 12 12 11 9 9 9
10 10 11 11 11 10 9 9 11 10 9 12 11 11 11 12 12 10 10 9 10 10 10 10 10 10 10 9 8 4 5 9 8 7 8 7 12 12 10 8 8 8 9
6 10 10 11 10 10 10 8 10 8 10 11 9 7 9 8 8 8 11 8 8 9 10 9 8 5 5 6 4 4 8 5 7 6 6 10 12 12 13 13 13 14 14
11 11 12 11 10 10 9 10 10 9 8 8 8 6 5 5 7 9 7 7 6 7 7 6 3 3 6 3 3 3 5 5 5 5 6 11 12 12 13 13 15 15 16
13 11 12 11 11 10 8 7 5 5 5 5 7 5 5 6 6 5 5 5 5 6 4 5 3 2 4 4 4 5 5 4 4 4 8 11 12 13 14 15 15 17 18
14 13 12 12 10 10 7 7 7 6 6 5 6 7 5 4 3 3 3 4 3 2 3 1 3 2 3 3 4 5 5 5 4 4 9 12 12 12 15 17 17 17 17
15 12 13 11 9 10 8 6 6 6 5 6 6 6 5 5 4 4 3 3 3 2 2 2 2 2 2 3 3 4 4 5 5 3 6 12 12 16 17 17 17 17 18
15 15 12 9 9 8 7 7 6 5 6 5 6 6 5 4 4 4 4 3 3 2 2 1 1 1 1 1 2 3 3 4 5 5 4 8 13 17 18 18 18 18 17
14 15 15 12 8 7 9 7 7 7 6 6 6 7 7 5 5 4 4 3 3 2 1 1 2 1 1 0 1 0 1 4 4 5 5 5 9 14 18 19 18 18 19
15 17 16 14 14 10 8 7 7 7 7 7 7 6 8 7 6 5 4 4 3 3 3 2 1 2 1 1 2 3 3 3 4 6 6 6 6 4 13 17 18 21 21
15 16 17 17 16 16 14 10 9 9 7 7 7 7 10 9 8 6 4 4 5 4 3 2 2 1 2 3 2 3 2 3 4 5 6 7 7 7 6 15 20 19 21
17 13 14 14 16 15 10 9 8 8 7 7 7 7 10 9 10 7 5 6 6 4 5 4 3 2 2 3 3 2 3 4 3 4 6 7 6 7 7 7 5 9 17
17 17 18 17 15 11 9 9 9 9 8 8 7 9 9 9 10 7 4 5 6 6 6 6 3 3 3 3 3 0 5 3 3 4 4 6 6 7 7 7 6 6 6
19 18 16 16 16 15 11 9 9 9 8 8 7 8 10 10 9 7 7 6 6 6 6 6 6 2 1 1 1 1 2 3 4 4 4 5 6 5 6 9 8 8 7
19 18 18 18 17 16 15 10 9 8 8 8 8 8 9 11 10 10 10 7 6 3 5 8 8 7 4 2 2 2 2 2 2 4 4 4 5 4 5 7 7 7 7
19 17 18 17 17 16 17 12 14 11 10 9 10 8 10 13 14 12 11 10 8 7 8 7 6 3 3 5 2 1 1 2 2 3 3 4 4 5 5 4 5 7 8
16 17 16 17 18 17 16 16 12 13 10 9 10 12 12 10 11 12 12 11 10 8 8 6 7 5 3 3 3 3 3 2 2 2 3 4 4 4 4 5 5 5 7
15 15 16 17 17 17 17 18 18 17 14 11 11 9 8 8 8 11 11 9 9 7 7 6 5 6 5 4 3 4 4 3 4 2 1 2 1 3 4 3 4 4 5
Wind_Direction
139 125 159 116 102 93 85 88 97 103 103 93 86 78 81 75 80 79 81 78 79 78 76 75 74 72 73 71 70 69 67 67 70 80 73 64 60 59 51 40 59 60 57
116 135 122 112 98 92 81 78 87 88 97 97 93 83 80 82 84 81 79 80 84 79 78 77 73 72 70 69 67 66 63 61 51 76 95 76 54 55 48 44 50 54 53
139 120 126 102 104 109 109 95 85 101 99 96 93 92 92 93 91 86 76 78 85 82 77 74 72 69 68 66 64 63 60 47 22 352 80 74 62 54 54 49 47 54 46
134 125 122 101 108 121 110 110 107 95 95 93 95 101 101 92 89 85 80 78 87 83 80 74 70 71 69 65 61 59 58 45 10 22 53 61 62 51 52 57 56 49 53
134 117 115 121 127 116 123 109 98 101 99 109 105 106 102 95 86 88 84 67 81 81 81 76 72 71 67 62 61 61 52 21 360 72 57 49 57 55 56 54 51 53 48
125 123 128 126 122 122 135 119 105 105 106 107 106 99 100 83 81 88 85 74 75 79 80 77 73 72 67 63 62 56 34 4 59 62 68 64 58 55 53 53 53 51 46
113 124 139 127 115 105 134 114 107 101 101 98 103 102 100 100 90 82 90 86 75 81 77 76 76 71 67 63 60 52 25 5 62 63 62 60 54 51 51 49 47 43 39
131 132 134 121 107 97 111 111 102 100 105 113 120 110 100 102 92 87 91 93 86 82 79 76 76 73 68 63 57 42 15 359 65 68 70 60 47 51 50 46 43 40 37
126 135 142 138 117 95 88 97 108 96 100 91 89 98 86 98 88 79 79 85 88 83 80 76 73 70 67 63 56 43 11 346 66 56 60 49 12 43 45 40 36 30 24
148 148 148 142 152 143 127 88 88 84 71 87 86 87 86 81 93 96 99 82 89 85 80 77 74 68 66 63 50 14 315 298 56 62 63 30 7 15 25 20 10 356 351
187 152 151 153 153 143 135 116 105 100 104 109 110 126 165 125 126 113 65 75 83 85 77 72 73 79 108 103 75 306 306 43 50 45 55 16 11 8 12 4 1 359 5
175 193 158 157 156 151 137 160 149 143 158 149 149 173 112 113 65 95 98 97 83 88 94 95 115 218 231 67 98 248 45 31 49 47 60 23 13 7 8 9 1 6 10
176 191 168 163 159 159 156 160 152 163 155 160 153 150 131 127 152 145 144 156 146 206 163 184 172 60 42 19 35 39 30 30 26 33 63 34 19 17 20 24 25 25 26
180 188 180 166 169 167 166 176 167 164 165 168 168 158 151 154 154 148 143 131 161 131 136 144 101 79 78 59 36 29 23 11 25 26 74 46 34 36 39 37 32 28 26
181 199 182 178 182 170 179 180 172 170 177 168 161 171 171 155 164 165 151 166 138 158 155 144 119 103 91 52 42 26 20 22 20 28 87 63 43 45 42 37 35 33 34
188 187 189 186 184 191 182 179 173 174 179 171 171 173 188 169 165 166 167 167 159 184 164 189 58 49 55 54 51 39 19 25 42 34 65 89 69 56 48 43 40 41 42
191 185 188 187 180 189 183 208 181 180 179 186 182 178 182 188 179 185 183 176 165 170 203 203 206 217 252 112 64 203 359 55 49 69 68 79 114 77 61 48 46 47 49
189 188 187 189 183 184 199 205 200 188 190 190 186 183 188 189 191 197 183 189 180 193 213 207 217 284 263 303 325 349 17 80 90 81 71 59 51 66 79 65 53 53 51
194 193 187 188 190 190 196 197 209 200 205 196 194 193 188 191 191 190 198 202 186 207 196 220 229 231 302 302 360 352 37 89 123 91 79 83 55 46 59 91 75 59 49
195 190 187 187 194 192 193 200 200 200 207 206 203 199 191 194 194 201 204 203 201 193 212 204 211 234 348 332 310 311 62 115 94 103 105 87 67 59 61 52 75 86 53
198 194 197 192 194 188 196 194 198 203 199 207 208 205 195 196 189 198 212 223 191 205 211 213 195 211 196 250 270 213 131 145 101 110 93 78 70 72 64 68 54 38 43
202 201 200 197 196 193 193 199 206 205 202 211 202 207 191 197 193 194 205 210 221 204 204 202 187 167 111 295 284 191 210 161 149 100 88 73 74 78 72 65 59 50 37
207 203 204 202 201 200 200 196 201 210 209 202 203 201 199 199 199 197 206 205 206 197 203 198 198 182 160 169 249 299 236 232 139 135 107 76 78 84 97 98 76 58 43
207 204 208 207 206 203 198 201 201 203 203 208 206 198 206 201 199 202 210 205 203 201 221 199 190 168 152 171 145 136 58 355 236 161 146 109 97 94 73 76 62 59 42
205 207 208 208 210 206 202 204 203 207 211 207 210 203 207 208 208 201 199 198 211 217 224 174 169 167 179 153 201 150 179 196 211 248 162 148 134 103 95 85 66 46 38
210 208 207 210 212 209 208 205 211 210 212 209 213 199 201 199 199 201 194 196 199 182 167 159 148 157 166 194 176 178 179 171 174 155 170 141 112 108 98 92 69 45 39